Date String (YYYY-MM-DD hh:mm:ss) UTC,Instrument flags,Ambient pressure (hPa),Sample flow (lpm),Bypass flow (lpm),Sample temperature (°C),Ambient temperature (°C),ASC tube jacket temperature (°C),LED temperature (°C),Box temperature (°C),Sample RH (%),Span deviation,Mass concentration (μg/m³),Mass concentration (μg/m³),Mass concentration (μg/m³)
DateTimeUTC,F1_M11,P_M11,Q1_M11,Q2_M11,T1_M11,T2_M11,T3_M11,T4_M11,T5_M11,U1_M11,ZSPAN_M11,X0_M11,X2_M11,X1_M11
2023-05-01 11:00:00,,0828.1,5.00,0.00,26.6,25.0,00.0,35.0,28.1,14.1,0000.0,0013.46,0004.93,0003.35
2023-05-01 11:01:00,,0828.0,5.00,0.00,26.6,25.0,00.0,35.0,28.1,14.1,0000.0,0013.24,0005.02,0003.36
2023-05-01 11:02:00,,0828.1,4.99,0.00,26.6,25.1,00.0,35.0,28.2,14.1,0000.0,0013.31,0005.01,0003.35
2023-05-01 11:03:00,,0828.1,4.99,0.00,26.6,25.0,00.0,35.0,28.2,14.1,0000.0,0013.91,0005.03,0003.34
2023-05-01 11:04:00,,0828.1,5.01,0.00,26.6,25.0,00.0,35.0,28.2,14.1,0000.0,0014.98,0005.09,0003.34
2023-05-01 11:05:00,,0828.1,5.02,0.00,26.6,25.0,00.0,35.0,28.1,14.1,0000.0,0015.20,0005.08,0003.35
2023-05-01 11:06:00,,0828.1,5.01,0.00,26.6,25.1,00.0,35.0,28.2,14.1,0000.0,0015.36,0005.10,0003.35
2023-05-01 11:07:00,,0828.0,4.99,0.00,26.6,25.1,00.0,35.0,28.2,14.1,0000.0,0015.04,0005.07,0003.35
2023-05-01 11:08:00,,0828.1,5.00,0.00,26.6,25.1,00.0,35.0,28.1,14.1,0000.0,0014.55,0005.04,0003.35
2023-05-01 11:09:00,,0828.1,5.02,0.00,26.6,25.0,00.0,35.0,28.2,14.1,0000.0,0015.73,0005.06,0003.36
2023-05-01 11:10:00,,0828.1,4.99,0.00,26.6,25.0,00.0,35.0,28.1,14.1,0000.0,0016.17,0005.05,0003.35
2023-05-01 11:11:00,,0828.0,4.99,0.00,26.6,25.0,00.0,35.0,28.1,14.1,0000.0,0016.77,0005.04,0003.35
2023-05-01 11:12:00,,0828.1,5.00,0.00,26.6,25.0,00.0,35.0,28.1,14.1,0000.0,0016.96,0005.02,0003.34
2023-05-01 11:13:00,,0828.1,5.00,0.00,26.6,25.0,00.0,35.0,28.1,14.1,0000.0,0017.06,0004.97,0003.34
2023-05-01 11:14:00,,0828.1,5.00,0.00,26.6,25.0,00.0,35.0,28.1,14.1,0000.0,0016.74,0004.98,0003.34
2023-05-01 11:15:00,,0828.1,5.02,0.00,26.6,25.0,00.0,35.0,28.1,14.1,0000.0,0016.14,0004.94,0003.34
2023-05-01 11:16:00,,0828.1,5.00,0.00,26.6,25.0,00.0,35.0,28.1,14.1,0000.0,0016.75,0004.96,0003.34
2023-05-01 11:17:00,,0828.1,4.98,0.00,26.6,25.0,00.0,35.0,28.1,14.1,0000.0,0016.83,0004.98,0003.34
2023-05-01 11:18:00,,0828.0,5.00,0.00,26.6,25.0,00.0,35.0,28.1,14.1,0000.0,0017.55,0005.01,0003.33
2023-05-01 11:19:00,,0828.1,5.01,0.00,26.6,25.0,00.0,35.0,28.1,14.0,0000.0,0017.93,0005.00,0003.32
2023-05-01 11:20:00,,0828.1,5.01,0.00,26.5,24.9,00.0,35.0,28.1,13.9,0000.0,0016.96,0004.92,0003.29
2023-05-01 11:21:00,,0828.1,4.99,0.00,26.5,24.9,00.0,34.9,28.1,13.9,0000.0,0016.06,0004.85,0003.28
2023-05-01 11:22:00,,0828.1,4.99,0.00,26.5,24.9,00.0,34.9,28.1,13.8,0000.0,0015.24,0004.86,0003.28
2023-05-01 11:23:00,,0828.0,5.00,0.00,26.5,24.9,00.0,34.9,28.1,13.8,0000.0,0014.91,0004.83,0003.27
2023-05-01 11:24:00,,0828.1,5.01,0.00,26.5,24.9,00.0,34.9,28.0,13.7,0000.0,0014.55,0004.88,0003.27
2023-05-01 11:25:00,,0828.1,5.00,0.00,26.5,24.9,00.0,34.9,28.0,13.6,0000.0,0014.34,0004.85,0003.27
2023-05-01 11:26:00,,0828.1,4.99,0.00,26.5,24.9,00.0,34.9,28.0,13.5,0000.0,0014.50,0004.81,0003.26
2023-05-01 11:27:00,,0828.1,5.00,0.00,26.5,24.9,00.0,34.9,28.0,13.4,0000.0,0014.30,0004.76,0003.24
2023-05-01 11:28:00,,0828.1,5.00,0.00,26.5,24.8,00.0,34.9,28.0,13.3,0000.0,0014.52,0004.71,0003.22
2023-05-01 11:29:00,,0828.1,5.00,0.00,26.5,24.8,00.0,34.9,28.0,13.3,0000.0,0013.79,0004.61,0003.20
2023-05-01 11:30:00,,0828.0,4.99,0.00,26.4,24.8,00.0,34.9,27.9,13.3,0000.0,0013.21,0004.58,0003.18
2023-05-01 11:31:00,,0828.0,5.01,0.00,26.4,24.8,00.0,34.9,27.9,13.3,0000.0,0012.89,0004.61,0003.17
2023-05-01 11:32:00,,0827.9,5.00,0.00,26.4,24.8,00.0,34.9,27.9,13.2,0000.0,0012.34,0004.59,0003.14
2023-05-01 11:33:00,,0827.9,4.99,0.00,26.4,24.8,00.0,34.9,27.9,13.2,0000.0,0012.27,0004.58,0003.11
2023-05-01 11:34:00,,0827.9,5.00,0.00,26.4,24.7,00.0,34.8,27.9,13.1,0000.0,0012.48,0004.64,0003.08
2023-05-01 11:35:00,,0827.8,5.00,0.00,26.4,24.7,00.0,34.8,27.9,13.1,0000.0,0012.30,0004.56,0003.03
2023-05-01 11:36:00,,0827.9,4.99,0.00,26.4,24.6,00.0,34.8,27.9,13.0,0000.0,0012.09,0004.49,0002.97
2023-05-01 11:37:00,,0827.9,5.00,0.00,26.4,24.6,00.0,34.8,27.9,12.9,0000.0,0011.54,0004.43,0002.93
2023-05-01 11:38:00,,0827.9,5.00,0.00,26.3,24.6,00.0,34.8,27.9,12.9,0000.0,0011.21,0004.41,0002.91
2023-05-01 11:39:00,,0827.9,5.01,0.00,26.3,24.6,00.0,34.8,27.8,12.8,0000.0,0010.89,0004.39,0002.88
2023-05-01 11:40:00,,0827.8,5.01,0.00,26.3,24.6,00.0,34.8,27.8,12.7,0000.0,0011.26,0004.39,0002.87
2023-05-01 11:41:00,,0827.9,5.00,0.00,26.3,24.6,00.0,34.7,27.9,12.7,0000.0,0011.26,0004.42,0002.85
2023-05-01 11:42:00,,0827.8,5.00,0.00,26.3,24.6,00.0,34.7,27.8,12.7,0000.0,0011.37,0004.38,0002.81
2023-05-01 11:43:00,,0827.9,4.99,0.00,26.3,24.6,00.0,34.7,27.8,12.6,0000.0,0012.04,0004.41,0002.78
2023-05-01 11:44:00,,0827.9,5.00,0.00,26.3,24.6,00.0,34.7,27.8,12.7,0000.0,0011.94,0004.36,0002.76
2023-05-01 11:45:00,,0827.9,5.00,0.00,26.3,24.6,00.0,34.7,27.8,12.6,0000.0,0011.53,0004.24,0002.74
2023-05-01 11:46:00,,0828.0,5.00,0.00,26.3,24.5,00.0,34.7,27.8,12.5,0000.0,0011.94,0004.21,0002.73
2023-05-01 11:47:00,,0828.1,5.00,0.00,26.2,24.5,00.0,34.7,27.8,12.4,0000.0,0012.37,0004.23,0002.70
2023-05-01 11:48:00,,0828.1,5.00,0.00,26.2,24.5,00.0,34.7,27.8,12.4,0000.0,0012.68,0004.27,0002.69
2023-05-01 11:49:00,,0828.1,5.01,0.00,26.2,24.5,00.0,34.7,27.8,12.3,0000.0,0012.09,0004.25,0002.68
2023-05-01 11:50:00,,0828.1,5.01,0.00,26.2,24.5,00.0,34.7,27.8,12.2,0000.0,0012.02,0004.28,0002.65
2023-05-01 11:51:00,,0828.1,5.00,0.00,26.2,24.5,00.0,34.7,27.8,12.3,0000.0,0011.95,0004.27,0002.62
2023-05-01 11:52:00,,0828.1,5.00,0.00,26.2,24.5,00.0,34.6,27.8,12.4,0000.0,0012.01,0004.22,0002.61
2023-05-01 11:53:00,,0828.1,4.99,0.00,26.2,24.6,00.0,34.6,27.7,12.5,0000.0,0012.02,0004.24,0002.62
2023-05-01 11:54:00,,0828.1,5.00,0.00,26.2,24.6,00.0,34.6,27.7,12.5,0000.0,0012.00,0004.27,0002.64
2023-05-01 11:55:00,,0828.1,5.00,0.00,26.2,24.6,00.0,34.6,27.7,12.6,0000.0,0012.72,0004.29,0002.64
2023-05-01 11:56:00,,0828.1,5.01,0.00,26.2,24.6,00.0,34.6,27.7,12.6,0000.0,0013.69,0004.33,0002.63
2023-05-01 11:57:00,,0828.1,5.01,0.00,26.2,24.6,00.0,34.6,27.7,12.6,0000.0,0014.69,0004.36,0002.63
2023-05-01 11:58:00,,0828.1,4.99,0.00,26.2,24.6,00.0,34.6,27.7,12.5,0000.0,0014.58,0004.40,0002.63
2023-05-01 11:59:00,,0828.1,5.00,0.00,26.2,24.6,00.0,34.6,27.7,12.5,0000.0,0014.14,0004.42,0002.64
